FW0045 Weather Reports


Display with metric or nautical units.
time (UTC)temp
F
wind
direction
speed
MPH
gust
MPH
rain 1hr
in
rain 24hr
in
rain mn
in
humidity
%
barometer
mb
20180527170150 79 160 2.0 5.0 0.00 0.01 0.00 91 1009.2
20180527164619 79 290 0.0 0.0 0.00 0.01 0.00 91 1009.2
20180527163129 79 290 0.0 0.0 0.00 0.01 0.00 91 1009.2
20180527161627 79 290 0.0 0.0 0.00 0.01 0.00 91 1009.4
20180527160136 79 290 0.0 0.0 0.00 0.01 0.00 91 1009.6
20180527154620 79 290 0.0 0.0 0.00 0.01 0.01 91 1009.7
20180527153133 79 290 0.0 0.0 0.00 0.01 0.01 91 1009.8
20180527151617 79 290 0.0 0.0 0.00 0.01 0.01 91 1009.8
20180527150200 80 290 0.0 0.0 0.00 0.01 0.01 91 1009.7
20180527144620 80 290 0.0 0.0 0.00 0.01 0.01 91 1009.6
20180527143115 80 290 0.0 0.0 0.00 0.01 0.01 91 1009.5
20180527141624 80 290 0.0 0.0 0.00 0.01 0.01 90 1009.2
20180527140053 80 290 0.0 0.0 0.00 0.01 0.01 90 1009.1
20180527134628 81 290 0.0 0.0 0.00 0.02 0.01 89 1008.8
20180527133120 81 290 0.0 0.0 0.00 0.02 0.01 89 1008.3
20180527131629 81 290 0.0 0.0 0.00 0.02 0.01 87 1008.1
20180527130135 81 286 0.0 0.0 0.00 0.02 0.01 86 1007.8
20180527124631 81 286 0.0 2.0 0.00 0.02 0.01 85 1007.3
20180527123127 82 47 0.0 0.0 0.00 0.02 0.01 80 1007.0
20180527121529 83 47 0.0 0.0 0.00 0.02 0.01 80 1006.7
20180527120027 82 47 0.0 0.0 0.00 0.02 0.01 79 1006.7
20180527114612 82 47 0.0 0.0 0.00 0.04 0.01 84 1006.6
20180527113016 82 47 0.0 1.0 0.00 0.04 0.01 86 1006.5
20180527111615 82 47 0.0 0.0 0.00 0.04 0.01 86 1006.3
20180527110023 82 47 0.0 0.0 0.00 0.04 0.01 86 1006.1
20180527104614 82 47 0.0 0.0 0.00 0.04 0.01 86 1005.9
20180527103027 83 47 0.0 0.0 0.00 0.04 0.01 84 1005.5
20180527101612 83 47 0.0 0.0 0.00 0.04 0.01 84 1005.3
20180527100047 84 47 0.0 0.0 0.00 0.04 0.01 82 1005.2
20180527094625 83 47 0.0 1.0 0.00 0.16 0.01 83 1005.1
20180527093113 84 36 0.0 1.0 0.00 0.16 0.01 82 1005.2
20180527090018 83 360 2.0 4.0 0.00 0.16 0.01 86 1005.2
20180527084616 83 26 0.0 6.0 0.00 0.16 0.01 87 1005.4
20180527083129 83 286 0.0 0.0 0.00 0.16 0.01 87 1005.6
20180527081622 82 22 1.0 5.0 0.00 0.16 0.01 87 1005.8
20180527080029 84 360 1.0 8.0 0.00 0.16 0.01 86 1005.8
20180527074620 84 5 3.0 10.0 0.00 0.16 0.01 83 1006.0
20180527072934 84 5 3.0 10.0 0.00 0.16 0.01 83 1006.3
20180527071435 84 26 2.0 12.0 0.00 0.16 0.01 82 1006.6
20180527070017 85 355 3.0 6.0 0.00 0.16 0.01 81 1006.8
20180527064427 86 18 2.0 5.0 0.00 0.16 0.01 79 1006.8
20180527062919 86 348 0.0 3.0 0.00 0.16 0.01 80 1007.0
20180527061434 85 15 0.0 4.0 0.00 0.16 0.01 81 1007.3
20180527055925 84 162 0.0 4.0 0.00 0.16 0.01 82 1007.7
20180527054430 85 244 1.0 5.0 0.00 0.16 0.01 82 1008.0
20180527052920 84 209 2.0 9.0 0.00 0.16 0.01 81 1008.0
20180527051425 84 280 2.0 7.0 0.00 0.16 0.01 82 1008.3
20180527045924 84 275 1.0 7.0 0.00 0.16 0.01 84 1008.8
20180527044619 83 305 4.0 8.0 0.00 0.16 0.01 84 1009.1
20180527042930 82 175 1.0 12.0 0.00 0.16 0.01 86 1009.2
20180527041427 81 257 3.0 11.0 0.00 0.16 0.01 88 1009.4
20180527035923 80 263 2.0 9.0 0.00 0.16 0.01 89 1009.8
20180527034434 80 36 0.0 3.0 0.00 0.16 0.01 89 1010.1
20180527032926 79 202 4.0 8.0 0.00 0.16 0.01 89 1010.3
20180527031415 80 269 0.0 7.0 0.01 0.16 0.01 90 1010.3
20180527025825 80 245 3.0 9.0 0.01 0.16 0.01 90 1010.2
20180527024319 79 236 2.0 9.0 0.01 0.16 0.01 91 1010.2
20180527022835 78 297 2.0 9.0 0.01 0.16 0.01 93 1010.1
20180527021340 78 311 3.0 9.0 0.00 0.15 0.00 94 1010.0
20180527015826 78 284 2.0 7.0 0.00 0.15 0.00 95 1009.9
20180527014323 77 298 2.0 9.0 0.00 0.15 0.00 95 1009.8
20180527012813 77 274 2.0 7.0 0.00 0.15 0.00 94 1009.6
20180527011327 77 288 1.0 7.0 0.00 0.15 0.00 94 1009.4
20180527005828 77 267 1.0 10.0 0.00 0.15 0.00 94 1009.0
20180527004313 77 270 1.0 5.0 0.00 0.15 0.00 94 1009.0
20180527002831 77 298 3.0 9.0 0.00 0.15 0.00 94 1008.8
20180527001318 77 286 0.0 2.0 0.00 0.15 0.00 94 1008.5
20180526235731 76 320 0.0 2.0 0.00 0.15 0.00 94 1008.1
20180526234222 76 320 0.0 0.0 0.00 0.15 0.00 94 1007.8
20180526232730 76 320 0.0 0.0 0.00 0.15 0.00 93 1007.6
20180526231224 76 320 0.0 1.0 0.00 0.15 0.00 93 1007.3
20180526225723 76 320 0.0 3.0 0.00 0.15 0.00 93 1007.3
20180526222724 76 24 4.0 6.0 0.00 0.15 0.00 94 1006.8
20180526221226 76 65 0.0 0.0 0.00 0.15 0.00 95 1007.0
20180526215717 76 65 0.0 0.0 0.00 0.15 0.00 95 1006.8
20180526214225 76 65 0.0 0.0 0.00 0.15 0.00 95 1006.9
20180526212736 76 65 0.0 0.0 0.00 0.15 0.00 95 1006.6
20180526211218 76 65 0.0 0.0 0.00 0.15 0.00 95 1006.5
20180526205730 76 65 0.0 0.0 0.00 0.15 0.00 95 1006.2
20180526204238 76 65 0.0 0.0 0.00 0.15 0.00 95 1006.3
20180526202725 76 65 0.0 0.0 0.00 0.15 0.00 94 1006.2
20180526201234 76 299 0.0 0.0 0.00 0.15 0.00 94 1006.2
20180526194218 77 299 0.0 0.0 0.00 0.15 0.00 95 1006.5
20180526192721 77 299 0.0 0.0 0.00 0.15 0.00 94 1006.4
20180526191212 76 299 0.0 0.0 0.00 0.15 0.00 94 1006.7
20180526185627 76 299 0.0 0.0 0.00 0.15 0.00 94 1007.0
20180526184121 76 299 0.0 0.0 0.00 0.15 0.00 94 1007.3
20180526182618 76 298 0.0 0.0 0.00 0.15 0.00 94 1007.7
20180526181125 76 298 0.0 0.0 0.00 0.15 0.00 94 1008.0
20180526175626 77 298 0.0 0.0 0.00 0.15 0.00 94 1008.3
20180526172624 77 298 0.0 0.0 0.00 0.15 0.00 94 1008.7